PSLV R/B (44234 NORAD) Tracking and Keplerian Element Data

This shows tracking and keplerian element data for the satellite.

Feedback or suggestion? Click here.




ElementValue
Catalog44234
NamePSLV R/B
Epoch Orbit417
Epoch Day169.50689721
Epoch Year2019
RAAN339.9917
Inclination37.0314
Eccentricity0.0057669
Argument of Perigee257.1476
Mean Anonmoly102.2844
Mean Motion15.15813085
Decay Rate3.36E-06
L11 44234U 19028B 19169.50689721 .00000336 00000-0 21499-4 0 9992
L22 44234 37.0314 339.9917 0057669 257.1476 102.2844 15.15813085 4173



Live tracking and technical data element details for PSLV R/B (NORAD 44234). PSLV R/B can be tracked NOW for your location showing map with azimuth and elevation plus other details from your city location.







IsCatalogInMostPopularTable: catalog: 44234, numindb: 180
Update: records affected: 1



GetName: 44234 PSLV R/B

Hit Count: updated at: Sun, 11 Jun 2023 00:11:19 GMT